Home   Weather   Coquitlam   Past weeks
Flag for Canada

Past Weather in Coquitlam, British Columbia, Canada — Yesterday and Last 2 Weeks

Now
46 °F

Cool.


Feels Like: 46 °F
Forecast: 72 / 44 °F
Wind: 1 mph from West

Location: P. Meadows Coastal Station

Current Time: Mar 20, 2019 at 1:05:14 am

Latest Report: Mar 20, 2019 at 12:00 am


Visibility: N/A

Pressure: 29.98 "Hg

Humidity: 72%

Dew Point: 37 °F

Location of CoquitlamLocation

Past Weather in Coquitlam — Graph

°F

Coquitlam Temperature Yesterday

Maximum temperature yesterday: 74 °F (at 5:00 pm)
Minimum temperature yesterday: 35 °F (at 4:00 am)
Average temperature yesterday: 52 °F

High & Low Weather Summary for the Past Weeks

 TemperatureHumidityPressure
High74 °F (Mar 19, 5:00 pm)100% (Mar 6, 5:00 pm)30.42 "Hg (Mar 6, 5:00 pm)
Low22 °F (Mar 6, 5:00 am)20% (Mar 19, 3:00 pm)29.62 "Hg (Mar 6, 1:00 pm)
Average41 °F76%30.12 "Hg
* Reported Mar 4 10:00 pm — Mar 19 11:00 pm, Coquitlam. Weather by CustomWeather, © 2019

Note: Actual official high and low records may vary slightly from our data, if they occured in-between our weather recording intervals... More about our weather records

Advertising

Coquitlam Weather History for the Previous 24 Hours

Scroll right to see more
 ConditionsComfort  
Time TempWeatherWind HumidityBarometerVisibility
11:00 pm
Tue, Mar 19
48 °FCool.No wind62%29.97 "HgN/A
10:00 pm55 °FRefreshingly cool.2 mph47%29.96 "HgN/A
9:00 pm56 °FRefreshingly cool.1 mph48%29.96 "HgN/A
8:00 pm62 °FRefreshingly cool.3 mph40%29.96 "HgN/A
7:00 pm67 °FMild.2 mph31%29.96 "HgN/A
6:00 pm70 °FMild.6 mph26%29.96 "HgN/A
5:00 pm74 °FMild.2 mph23%29.98 "HgN/A
4:00 pm74 °FMild.1 mph23%30.00 "HgN/A
3:00 pm72 °FMild.2 mph20%30.01 "HgN/A
2:00 pm67 °FMild.2 mph24%30.04 "HgN/A
1:00 pm67 °FMild.1 mph23%30.06 "HgN/A
12:00 pm62 °FRefreshingly cool.1 mph29%30.08 "HgN/A
11:00 am55 °FRefreshingly cool.1 mph45%30.10 "HgN/A
10:00 am49 °FCool.1 mph64%30.10 "HgN/A
9:00 am44 °FQuite cool.No wind81%30.10 "HgN/A
8:00 am36 °FChilly.1 mph91%30.11 "HgN/A
7:00 am35 °FChilly.No wind88%30.12 "HgN/A
6:00 am35 °FChilly.2 mph92%30.12 "HgN/A
5:00 am35 °FChilly.1 mph92%30.13 "HgN/A
4:00 am35 °FChilly.1 mph96%30.14 "HgN/A
3:00 am38 °FChilly.1 mph90%30.15 "HgN/A
2:00 am39 °FChilly.No wind88%30.14 "HgN/A
1:00 am40 °FQuite cool.1 mph84%30.13 "HgN/A
Weather by CustomWeather, © 2019

See weather overview